Find CATCH-1

NORAD ID: 60089 Int'l Des: 2024-116 Owner: CAS Country: CN operational
LEOCIRCULAR

現在のビュー

3D地球を読み込み中...

About CATCH-1

CATCH-1 (NORAD 60089) is a satellite launched Jun 22, 2024 by CAS of CN. It operates in LEO, CIRCULAR orbit with a mass of 20.00 kg.

次回通過

Passes for default location (London). Set your location on the main map for personalized predictions.

高度履歴

Loading altitude history...

軌道要素

1 60089U 24116B 26194.73622564 .00000745 00000-0 73187-4 0 9990
2 60089 28.9965 309.6992 0005120 310.0011 50.0133 14.83596667111545
Epoch: Jul 13, 2026 • Age: 21 hours

現在のステータス

高度 619.4 km
遠地点 / 近地点 N/A
速度 7.55 km/s
衛星直下点 29.12°N, 122.76°W
打ち上げ日 Jun 22, 2024
運用期間 2 years
タイプ other

技術仕様

分類 Payload
質量 20.00 kg
乾燥質量 20.00 kg
総質量 20.00 kg
長さ 0.30 m
直径 0.20 m
スパン 0.50 m
形状 Box+2 pan + boom
製造者 IMICAS
バスタイプ Hunter
フェーズステータス In Orbit
所有者/国 CAS/CN

Most Searched